Погода в Горе-Валдае

Россия / Санкт-Петербург и Ленинградская область     59°58′06″N   29°12′12″E
темп.,
°C
ветер,
м/с
пор.,
м/с
влажн.,
%
обл.,
%
осадки,
мм/ч
давл.,
гПа
погр.,
м
29 июля, чт
чт2900:00+18ю23935 1.3 100554
03:00+18юз4593100 1.3 100588
06:00+18юз6989100 0.4 1004228
09:00+18юз6888100 0.4 1003276
12:00+21з597127 0.1 1003619
15:00+21зюз477481 0.4 1001390
18:00+20з5777100 0.0 1001166
21:00+19зюз59785 0.0 1001248
30 июля, пт
пт3000:00+18юз58855 0.0 1001187
03:00+17юз6108724 0.0 1000319
06:00+16юз7118477 0.0 1000463
09:00+18юз8117093 0.0 1000913
12:00+20зюз696441 0.1 999779
15:00+20зюз81168100 0.4 999855
18:00+19зюз596972 0.8 998724
21:00+18ююз6107796 2.8 996411
31 июля, сб
сб3100:00+16ю61180100 0.8 995561
03:00+15ю6991100 2.7 993470
06:00+15юз688870 1.5 993474
09:00+16юз7987100 2.1 994679
12:00+17з10108236 0.6 996823
15:00+18з1010780 0.7 998748
18:00+19зюз810723 0.0 1000443
21:00+18зюз45775 0.0 1000121
1 августа, вс
вс100:00+17юз58735 0.0 1001181
03:00+16ю456935 0.0 1001126
06:00+17ююз5988100 0.0 1000269
09:00+16ююв4694100 4.3 999249
12:00+20ююз811788 2.5 998600
15:00+19юз1015797 6.5 998995
18:00+19зюз1014815 1.2 999961
21:00+18юз8137943 2.1 1000680
2 августа, пн
пн200:00+17юз913740 0.1 1000849
03:00+16юз8128799 0.7 1001803
06:00+16зюз8108482 0.4 1002855
09:00+17з810695 0.6 1003984
12:00+17з786789 0.0 10041065
15:00+17з5669100 0.0 1004624
18:00+17зсз4567100 0.0 1004459
21:00+17зсз5669100 0.0 1004466